STARLINK S

Last updated on Jan. 16, 2020, 12:02 a.m. UTC

1 44930U 20001S   20015.58334491  .00211508  00000-0  10796-2 0  9990
2 44930  53.0007 354.8868 0001390 228.0368 136.2536 15.80243524  1350

Satellite is not in orbit.